Location: Malanoce
(44.2500°N, 7.4667°E)
Time: 23:44:41
(UTC+00:00)

Cosmos 407 Rocket - Pass Details

Date: 17 November 2025
Orbit: 740 x 780 km, 74.0° (Epoch: 09 December)

Event Time Altitude Azimuth Distance (km) Brightness Sun altitude
Rises 17:00:57 0° 197° (SSW) 3,209 7.2 -10.8°
Reaches altitude 10° 17:03:19 10° 196° (SSW) 2,281 6.4 -11.2°
Maximum altitude 17:08:30 83° 109° (ESE) 763 3.4 -12.1°
Drops below altitude 10° 17:13:39 10° 22° (NNE) 2,273 5.6 -13.0°
Enters shadow 17:15:19 - 22° (NNE) 2,928 6.2 -13.3°
